Flag for Mozambique Weather past 2 weeks in Maputo, Mozambique

Now
82 °F

Passing clouds.


Feels Like: 82 °F
Forecast: 68 / 89 °F
Wind: 13 mph from East

Location: Maputo / Mavalane

Current Time: Mar 4, 2015 at 2:49:52 PM

Latest Report: Mar 4, 2015 at 2:00 PM


Visibility: N/A

Pressure: 30.04 "Hg

Humidity: 40%

Dew point: 55 °F

Location of MaputoLocation

Historic Weather in Maputo — Graph

°F

Maputo temperature yesterday

Maximum temperature yesterday: 82 °F (at 3:00 PM)
Minimum temperature yesterday: 66 °F (at 4:00 AM)
Average temperature yesterday: 74 °F

Past Weeks' High & Low Weather Summary

 TemperatureHumidityPressure
High95 °F (Feb 22, 6:00 PM)100% (Mar 1, 2:00 PM)30.27 "Hg (Mar 1, 2:00 PM)
Low64 °F (Feb 18, 6:00 AM)29% (Feb 18, 12:00 PM)29.74 "Hg (Feb 26, 4:00 PM)
Average78 °F66%29.98 "Hg
* Reported Feb 17 12:00 Noon — Mar 4 12:00 Noon, Maputo, Weather by CustomWeather, © 2015

Note: Actual official high and low records may vary slightly from our data, if they occured in-between our weather recording intervals... More about our weather records

Advertising

Maputo weather history for previous 24 hours

 ConditionsComfort  
Time TempWeatherWind HumidityBarometerVisibility
12:00 PM
Wed, Mar 4
81 °FScattered clouds.5 mph51%30.09 "HgN/A
11:00 AM79 °FPartly sunny.6 mph54%30.12 "HgN/A
10:00 AM77 °FPartly sunny.3 mph57%30.15 "HgN/A
9:00 AM75 °FPartly sunny.5 mph65%30.15 "HgN/A
8:00 AM73 °FPartly sunny.6 mph74%30.15 "HgN/A
7:00 AM68 °FScattered clouds.5 mph88%30.15 "HgN/A
6:00 AM64 °FScattered clouds.5 mph94%30.15 "HgN/A
5:00 AM64 °FScattered clouds.3 mph94%30.15 "HgN/A
4:00 AM64 °FPassing clouds.6 mph88%30.15 "HgN/A
3:00 AM64 °FPassing clouds.5 mph94%30.15 "HgN/A
2:00 AM66 °FPassing clouds.6 mph88%30.15 "HgN/A
12:00 AM73 °FClear.6 mph61%30.18 "Hg10 mi
11:00 PM
Tue, Mar 3
73 °FClear.7 mph61%30.18 "Hg10 mi
10:00 PM77 °FPassing clouds.7 mph54%30.18 "HgN/A
9:00 PM73 °FPassing clouds.7 mph65%30.21 "HgN/A
8:00 PM73 °FPassing clouds.9 mph65%30.18 "HgN/A
7:00 PM73 °FPassing clouds.9 mph65%30.18 "HgN/A
6:00 PM77 °FPassing clouds.10 mph54%30.15 "HgN/A
5:00 PM79 °FScattered clouds.9 mph54%30.15 "HgN/A
4:00 PM79 °FScattered clouds.8 mph48%30.15 "HgN/A
3:00 PM82 °FPartly sunny.10 mph40%30.18 "HgN/A
2:00 PM79 °FPartly sunny.9 mph45%30.18 "HgN/A
Weather by CustomWeather, © 2015

See weather overviewHow to use our weather pages